Weather History for Spokane Felts, WA

Change the Weather History Date:

Tuesday, October 16, 2012

  Actual Average Record
Temperature  
Mean Temperature 52 °F 48 °F  
Max Temperature 62 °F 59 °F 71 °F (1997)
Min Temperature 42 °F 37 °F 23 °F (1999)
Degree Days  
Heating Degree Days 13 17  
Month to date heating degree days 175 223  
Since 1 July heating degree days 262 434  
Cooling Degree Days 0 0  
Month to date cooling degree days 0 0  
Year to date cooling degree days 509 406  
Growing Degree Days 4 (Base 50)    
Moisture  
Dew Point 37 °F    
Average Humidity 50    
Maximum Humidity 62    
Minimum Humidity 38    
Precipitation  
Precipitation 0.00 in 0.05 in 0.26 in (2006)
Month to date precipitation 0.51 0.59  
Year to date precipitation 14.38 12.17  
Sea Level Pressure  
Sea Level Pressure 29.73 in    
Wind  
Wind Speed 17 mph (WSW)    
Max Wind Speed 31 mph    
Max Gust Speed 44 mph    
Visibility 10 miles    
Events      
T = Trace of Precipitation, MM = Missing Value Source: NWS Daily Summary

Daily Weather History Graph

Daily Weather History Graph

Search for Another Location

Airport:

Trip Planner

Search our weather history database for the weather conditions in past years. The results will help you decide how hot, cold, wet, or windy it might be!

Date:

Astronomy

Oct. 16, 2012 Rise Set
Actual Time 7:10 AM PDT 5:58 PM PDT
Civil Twilight 6:39 AM PDT 6:29 PM PDT
Nautical Twilight 6:03 AM PDT 7:04 PM PDT
Astronomical Twilight 5:27 AM PDT 7:40 PM PDT
Moon 8:48 AM PDT (10/16) 6:35 PM PDT (10/16)
Length of Visible Light 11h 49m
Length of Day
10h 47m
New Moon, 2% of the Moon is Illuminated
Oct 16
New Moon
Oct 21
First Quarter
Oct 29
Full
Nov 6
Last Quarter
Nov 13
New

Hourly Weather History & Observations

Time (PDT) Temp. Windchill Dew Point Humidity Pressure Visibility Wind Dir Wind Speed Gust Speed Precip Events Conditions
12:53 AM 61.0 °F - 55.0 °F 81% 29.54 in 10.0 mi SW 17.3 mph 24.2 mph N/A   Overcast
1:53 AM 62.1 °F - 55.0 °F 78% 29.51 in 10.0 mi SW 20.7 mph 26.5 mph N/A   Overcast
2:53 AM 62.1 °F - 55.0 °F 78% 29.48 in 10.0 mi WSW 18.4 mph 24.2 mph N/A   Overcast
3:37 AM 62.6 °F - 55.4 °F 77% 29.50 in 10.0 mi WSW 12.7 mph 21.9 mph N/A   Overcast
3:53 AM 62.1 °F - 54.0 °F 75% 29.45 in 10.0 mi SW 18.4 mph 25.3 mph N/A   Overcast
4:53 AM 60.8 °F - 53.6 °F 77% 29.46 in 10.0 mi WSW 15.0 mph 23.0 mph N/A   Overcast
5:53 AM 60.1 °F - 52.0 °F 75% 29.44 in 10.0 mi WSW 17.3 mph 23.0 mph N/A   Overcast
6:53 AM 57.9 °F - 43.0 °F 58% 29.48 in 10.0 mi West 20.7 mph 40.3 mph N/A   Partly Cloudy
7:53 AM 54.0 °F - 37.0 °F 53% 29.55 in 10.0 mi WSW 15.0 mph 32.2 mph N/A   Partly Cloudy
8:53 AM 54.0 °F - 37.0 °F 53% 29.62 in 10.0 mi WSW 16.1 mph 25.3 mph N/A   Scattered Clouds
9:53 AM 52.0 °F - 37.0 °F 57% 29.68 in 10.0 mi WSW 21.9 mph 29.9 mph N/A   Clear
10:53 AM 54.0 °F - 32.0 °F 43% 29.71 in 10.0 mi WSW 23.0 mph 39.1 mph N/A   Clear
11:53 AM 55.0 °F - 30.9 °F 40% 29.75 in 10.0 mi WSW 31.1 mph 40.3 mph N/A   Clear
12:53 PM 57.0 °F - 28.9 °F 34% 29.78 in 10.0 mi West 23.0 mph 38.0 mph N/A   Partly Cloudy
1:53 PM 59.0 °F - 26.1 °F 28% 29.78 in 10.0 mi WSW 20.7 mph 36.8 mph N/A   Scattered Clouds
2:53 PM 59.0 °F - 24.1 °F 26% 29.81 in 10.0 mi West 19.6 mph 34.5 mph N/A   Partly Cloudy
3:53 PM 57.9 °F - 25.0 °F 28% 29.84 in 10.0 mi WSW 28.8 mph 40.3 mph N/A   Scattered Clouds
4:53 PM 55.9 °F - 27.0 °F 33% 29.87 in 10.0 mi West 15.0 mph 40.3 mph N/A   Mostly Cloudy
5:53 PM 54.0 °F - 27.0 °F 35% 29.90 in 10.0 mi West 16.1 mph 26.5 mph N/A   Scattered Clouds
6:53 PM 52.0 °F - 27.0 °F 38% 29.94 in 10.0 mi WSW 13.8 mph 23.0 mph N/A   Scattered Clouds
7:53 PM 50.0 °F - 28.9 °F 44% 29.98 in 10.0 mi West 16.1 mph 25.3 mph N/A   Clear
8:53 PM 46.9 °F - 30.0 °F 52% 30.01 in 10.0 mi WSW 9.2 mph - N/A   Clear
9:53 PM 46.0 °F 41.0 °F 30.0 °F 54% 30.03 in 10.0 mi West 10.4 mph 17.3 mph N/A   Clear
10:53 PM 45.0 °F 41.2 °F 30.0 °F 56% 30.05 in 10.0 mi West 6.9 mph - N/A   Clear
11:53 PM 43.0 °F 37.7 °F 30.0 °F 60% 30.08 in 10.0 mi SW 9.2 mph - N/A   Clear